Orangeburg, SC

7:18 PM EST on December 03, 2016 (GMT -0500)
Orangeburg Municipal

Weather History for KOGB - April, 2012

Change the Weather History Date:

Saturday, April 14, 2012

  Actual Average Record
Temperature  
Mean Temperature 60 °F 63 °F  
Max Temperature 78 °F 76 °F 91 °F (1981)
Min Temperature 42 °F 50 °F 35 °F (1962)
Degree Days  
Heating Degree Days 5 4  
Month to date heating degree days 56 68  
Since 1 July heating degree days 1735 2277  
Cooling Degree Days 0 2  
Month to date cooling degree days 42 23  
Year to date cooling degree days 156 43  
Growing Degree Days 10 (Base 50)    
Moisture  
Dew Point 48 °F    
Average Humidity 64    
Maximum Humidity 96    
Minimum Humidity 36    
Precipitation  
Precipitation 0.00 in 0.09 in 2.25 in (1955)
Month to date precipitation 1.11 1.49  
Year to date precipitation 7.55 13.04  
Sea Level Pressure  
Sea Level Pressure 30.28 in    
Wind  
Wind Speed 5 mph (South)    
Max Wind Speed 15 mph    
Max Gust Speed 21 mph    
Visibility 10 miles    
Events      
T = Trace of Precipitation, MM = Missing Value Source: NWS Daily Summary

Daily Weather History Graph

Daily Weather History Graph

Search for Another Location

Airport or City:

Trip Planner

Search our weather history database for the weather conditions in past years. The results will help you decide how hot, cold, wet, or windy it might be!

Date:

Astronomy

Apr. 14, 2012 Rise Set
Actual Time 6:53 AM EDT 7:53 PM EDT
Civil Twilight 6:28 AM EDT 8:19 PM EDT
Nautical Twilight 5:58 AM EDT 8:49 PM EDT
Astronomical Twilight 5:26 AM EDT 9:21 PM EDT
Moon 2:57 AM EDT (4/14) 2:03 PM EDT (4/14)
Length of Visible Light 13h 51m
Length of Day
13h 00m
Last Quarter, 37% of the Moon is Illuminated
Apr 14
Last Quarter
Apr 21
New
Apr 29
First Quarter
May 5
Full
May 12
Last Quarter

Hourly Weather History & Observations

Time (EDT) Temp. Dew Point Humidity Pressure Visibility Wind Dir Wind Speed Gust Speed Precip Events Conditions
12:53 AM 48.9 °F 42.1 °F 77% 30.28 in 10.0 mi Calm Calm - N/A   Clear
1:53 AM 46.9 °F 42.1 °F 83% 30.27 in 10.0 mi Calm Calm - N/A   Clear
2:53 AM 46.0 °F 43.0 °F 89% 30.27 in 10.0 mi Calm Calm - N/A   Clear
3:53 AM 46.0 °F 42.1 °F 86% 30.28 in 10.0 mi Calm Calm - N/A   Clear
4:53 AM 45.0 °F 41.0 °F 86% 30.29 in 10.0 mi Calm Calm - N/A   Clear
5:53 AM 43.0 °F 41.0 °F 93% 30.31 in 10.0 mi Calm Calm - N/A   Clear
6:53 AM 42.1 °F 39.9 °F 92% 30.31 in 8.0 mi Calm Calm - N/A   Clear
7:53 AM 46.9 °F 43.0 °F 86% 30.34 in 10.0 mi Calm Calm - N/A   Clear
8:53 AM 55.0 °F 46.0 °F 72% 30.34 in 10.0 mi Calm Calm - N/A   Clear
9:53 AM 64.0 °F 46.0 °F 52% 30.34 in 10.0 mi Variable 3.5 mph - N/A   Clear
10:53 AM 69.1 °F 41.0 °F 36% 30.34 in 10.0 mi ESE 9.2 mph - N/A   Clear
11:53 AM 72.0 °F 46.9 °F 41% 30.33 in 10.0 mi SE 5.8 mph - N/A   Clear
12:53 PM 75.0 °F 48.0 °F 38% 30.32 in 10.0 mi SSE 9.2 mph - N/A   Clear
1:53 PM 75.0 °F 50.0 °F 41% 30.29 in 10.0 mi SW 9.2 mph 16.1 mph N/A   Scattered Clouds
2:53 PM 75.9 °F 51.1 °F 42% 30.25 in 10.0 mi SE 13.8 mph 20.7 mph N/A   Scattered Clouds
3:53 PM 75.9 °F 52.0 °F 43% 30.23 in 10.0 mi South 9.2 mph 19.6 mph N/A   Mostly Cloudy
4:53 PM 77.0 °F 52.0 °F 42% 30.21 in 10.0 mi SSW 8.1 mph 16.1 mph N/A   Partly Cloudy
5:53 PM 75.0 °F 50.0 °F 41% 30.21 in 10.0 mi South 9.2 mph - N/A   Clear
6:53 PM 73.9 °F 53.1 °F 48% 30.21 in 10.0 mi SSE 11.5 mph 18.4 mph N/A   Clear
7:53 PM 70.0 °F 55.9 °F 61% 30.22 in 10.0 mi South 9.2 mph - N/A   Clear
8:53 PM 66.9 °F 55.9 °F 68% 30.23 in 10.0 mi South 8.1 mph - N/A   Clear
9:53 PM 66.0 °F 55.9 °F 70% 30.24 in 10.0 mi South 5.8 mph - N/A   Clear
10:53 PM 64.0 °F 55.9 °F 75% 30.25 in 10.0 mi South 3.5 mph - N/A   Clear
11:53 PM 62.1 °F 55.9 °F 80% 30.25 in 10.0 mi SSW 3.5 mph - N/A   Clear